Regional Weather Roundup
Issued by NWS

Home | Current Version | Previous Version | Graphics & Text | Print | Product List | Glossary On
Versions: 1 2 3 4 5 6 7 8 9 10 11 12 13 14 15 16 17 18 19 20 21 22 23 24 25 26 27 28 29 30 31 32 33 34 35 36 37 38 39 40 41 42 43 44 45 46 47 48 49 50
000
ASUS43 KLOT 241303
RWRIL

ILLINOIS REGIONAL WEATHER ROUNDUP
NATIONAL WEATHER SERVICE CHICAGO/ROMEOVILLE IL
700 AM CST SAT FEB 24 2018

NOTE: "FAIR" INDICATES FEW OR NO CLOUDS BELOW 12,000 FEET WITH NO
SIGNIFICANT WEATHER AND/OR OBSTRUCTIONS TO VISIBILITY.

* THESE STATIONS ARE NOT UNDER NWS QUALITY CONTROL. THEY ALSO MAY NOT
  REPORT WEATHER SUCH AS PRECIPITATION OR FOG.

ILZ001-002-007-009-015-016-024-241400-
NORTHWEST ILLINOIS

CITY           SKY/WX    TMP DP  RH WIND       PRES   REMARKS
MOLINE         MIX PCPN  32  28  85 E17       30.11F WCI  21
STERLING*      FAIR      32  29  88 E17       30.13  WCI  21
SAVANNA*       CLOUDY    30  27  86 E7        30.16S WCI  23
$$

ILZ003-004-008-010-011-017-018-241400-
NORTH CENTRAL ILLINOIS

CITY           SKY/WX    TMP DP  RH WIND       PRES   REMARKS
ROCKFORD       CLOUDY    30  26  85 E9        30.17F WCI  22
FREEPORT*      CLOUDY    28  26  91 NE12      30.18S WCI  18
ROCHELLE*      CLOUDY    31  29  92 E12       30.15F WCI  22
DE KALB*       CLOUDY    31  29  92 E13G18    30.15F WCI  22
PERU*          CLOUDY    32  30  92 E9        30.15R WCI  24
$$

ILZ005-006-012>014-019>023-241400-
NORTHEAST ILLINOIS

CITY           SKY/WX    TMP DP  RH WIND       PRES   REMARKS
CHICAGO-OHARE  CLOUDY    35  29  78 E16       30.16F WCI  25
CHICAGO-MIDWAY CLOUDY    35  29  78 E17       30.17F WCI  25
AURORA         CLOUDY    34  30  85 E14       30.14F WCI  25
LANSING*       CLOUDY    34  32  92 NE7       30.18R WCI  28
JOLIET*        CLOUDY    36  32  87 E12G17    30.15F WCI  27
WAUKEGAN       CLOUDY    33  29  85 E10       30.18F WCI  25
DUPAGE AIRPORT CLOUDY    33  30  88 NE13G22   30.14F WCI  24
KANKAKEE*      CLOUDY    36  33  90 E10       30.15F WCI  28
WHEELING       CLOUDY    35  30  82 E10       30.19F WCI  27
MORRIS*        CLOUDY    34  32  92 E10       30.14S WCI  26
ROMEOVILLE*    CLOUDY    33  31  90 E16       30.15S WCI  23
NORTHERLY ISL    N/A     33  30  89 NE17        N/A  WCI  22
$$

LMZ740>746-241400-
SOUTHERN LAKE MICHIGAN

STATION/POSITION SKY/WX   TEMP    WIND        PRES    VSBY  WAVE
                          AIR SEA DIR/SP/G                  HT/PER
                          (F)     (DEG/KT/KT) (MB)    (MI)  (FT/S)
HARRISON CRIB              34      60/ 18/ 19   N/A
BURNHAM HARBOR             33      40/ 12/ 17   N/A
CALUMET HARBOR             33      40/ 15/ 18 1021.4F
BURNS HARBOR               34      70/ 11/ 18 1022.4
MICHIGAN CITY              34      40/ 10/ 11   N/A
$$

ILZ025>027-034>036-040-047-049-050-058-095>099-241400-
WEST-CENTRAL ILLINOIS

CITY           SKY/WX    TMP DP  RH WIND       PRES   REMARKS
QUINCY         LGT RAIN  33  32  96 NE10      30.05F FOG     WCI  25
GALESBURG*     MIX PCPN  32  32  98 E9        30.10F WCI  24
MACOMB*        LGT RAIN N/A N/A N/A NE10      30.11F
JACKSONVILLE*  DRIZZLE   36  35  96 NE10G16   30.05S WCI  28
PITTSFIELD*    DRIZZLE   36  36  99 NE7       30.06R WCI  30
$$

ILZ028>032-037-038-041>044-048-051>054-059>061-241400-
CENTRAL ILLINOIS

CITY           SKY/WX    TMP DP  RH WIND       PRES   REMARKS
PONTIAC        DRIZZLE   35  35  99 E10       30.14R WCI  28
BLOOMINGTON    LGT RAIN  35  34  96 E14       30.10S FOG     WCI  26
DECATUR        LGT RAIN  37  37 100 E14       30.07F WCI  28
PEORIA         LGT RAIN  34  31  88 E10       30.11F FOG     WCI  26
LINCOLN*       LGT RAIN  37  37 100 E9        30.09F WCI  30
SPRINGFIELD    LGT RAIN  38  36  92 E13       30.05F FOG     WCI  30
TAYLORVILLE    CLOUDY    37  37  98 E10       30.05F WCI  30
$$

ILZ033-039-045-046-055>057-062-063-241400-
EAST-CENTRAL ILLINOIS

CITY           SKY/WX    TMP DP  RH WIND       PRES   REMARKS
CHAMPAIGN      RAIN      37  37 100 E16       30.08F FOG     WCI  28
DANVILLE*      CLOUDY    37  37  98 E7        30.10R WCI  32
RANTOUL*       LGT RAIN  38  38  99 E13       30.10F WCI  31
MATTOON        HVY RAIN  40  39  97 SE6       30.07F FOG
PARIS*         LGT RAIN  39  39  99 E9        30.08F WCI  33
$$

ILZ079-100>102-241400-
SOUTHWEST ILLINOIS

CITY           SKY/WX    TMP DP  RH WIND       PRES   REMARKS
ALTON          DRIZZLE   39  39 100 NE10      30.01R WCI  32
BELLEVILLE     RAIN      42  41  94 SE8       30.02F FOG
CAHOKIA*       LGT RAIN  43  41  93 SE23G35   29.96F
SPARTA*        RAIN      44  44 100 CALM      30.05F
$$

ILZ064>066-069>071-074>076-080>082-084>086-088>090-092>094-241400-
SOUTH-CENTRAL ILLINOIS

CITY           SKY/WX    TMP DP  RH WIND       PRES   REMARKS
CARBONDALE     NOT AVBL
CAIRO*         DRIZZLE   49  49 100 N7        30.01R
EFFINGHAM*     HVY RAIN  42  42 100 NE6       30.08F
MARION         LGT RAIN  46  45  93 NE13      30.05R
CENTRALIA*     HVY RAIN  44  44  99 E3        30.06R
SALEM*         HVY RAIN  44  43  95 E5        30.06F
METROPOLIS*    DRIZZLE   50  49  97 CALM      30.03R
$$

ILZ067-068-072-073-078-083-087-091-241400-
SOUTHEAST ILLINOIS

CITY           SKY/WX    TMP DP  RH WIND       PRES   REMARKS
LAWRENCEVILLE  RAIN      46  45  96 E8        30.08F FOG
FLORA*         HVY RAIN  45  44  96 E6        30.06R
FAIRFIELD*     RAIN      45  45 100 MISG      30.06R
HARRISBURG*    RAIN      46  46 100 N7        30.08R
ROBINSON*      MIX PCPN  43  43 100 E7        30.10S
CARMI*         RAIN      46  46 100 N16       30.05F
$$

ABBREVIATIONS USED IN REMARKS
   TC - TEMPERATURE IN CELSIUS
  WCI - WIND CHILL INDEX
   HX - HEAT INDEX
  VSB - VISIBILITY
$$




USA.gov is the U.S. government's official web portal to all federal, state and local government web resources and services.